Wind_Speed
56 52 51 47 46 41 40 45 51 61 73 81 80 78 74 74 71 67 60 59 52 46 50 51 48 46 41 35 31 34 35 22
59 57 54 48 43 39 37 39 47 55 67 78 82 80 76 76 74 72 65 63 58 51 53 51 51 51 49 41 36 29 28 32
65 62 56 46 39 36 33 32 38 48 59 74 82 82 80 78 76 75 70 65 62 55 55 50 52 53 49 51 47 35 31 31
63 64 59 45 40 35 31 27 30 39 46 68 80 84 82 82 78 77 75 67 66 57 54 52 53 54 52 53 51 46 35 32
65 65 55 44 42 36 29 24 24 28 34 49 74 84 84 85 80 78 77 71 69 68 57 56 55 55 55 53 51 49 50 41
65 64 57 43 45 40 28 21 20 21 25 35 60 81 86 88 84 80 79 75 72 62 61 58 60 60 58 53 56 48 52 50
64 67 63 48 46 46 31 19 18 18 18 25 47 70 86 88 88 82 79 79 74 69 61 57 70 63 59 54 50 40 52 40
63 67 66 56 49 52 40 20 15 16 14 16 30 59 83 88 90 85 81 80 77 78 67 63 64 67 61 58 61 48 41 41
63 66 65 62 55 52 48 28 9 12 11 12 25 47 70 89 90 89 83 81 80 78 76 58 62 65 64 59 51 47 39 39
63 64 67 64 58 53 51 42 21 5 6 6 17 33 56 86 88 89 85 82 80 81 78 59 64 61 55 55 49 39 45 46
64 64 65 66 63 58 51 49 43 28 16 6 5 20 43 76 86 88 86 82 80 81 77 73 58 59 63 48 47 48 46 47
64 63 63 63 62 60 54 47 45 39 31 22 11 7 26 54 84 87 87 83 81 83 79 78 66 59 64 57 54 52 44 43
64 62 62 61 61 58 53 49 45 40 38 32 21 12 9 35 75 84 85 85 82 82 82 77 80 60 61 56 50 42 41 48
61 63 61 60 59 59 55 49 46 40 36 31 28 25 12 20 53 82 83 84 82 81 81 78 74 72 67 63 61 54 45 49
56 60 62 60 59 57 56 54 48 42 38 34 31 28 25 12 32 72 81 82 82 81 80 80 78 74 72 74 68 64 47 47
53 57 60 61 60 57 55 54 54 47 41 37 34 32 30 24 6 39 78 79 79 81 80 80 76 74 77 74 71 66 69 69
48 51 55 58 60 60 58 57 53 53 51 44 39 36 32 29 21 2 45 78 78 79 80 79 78 76 76 71 68 67 70 62
43 47 49 50 55 58 59 58 56 54 51 49 48 42 37 33 29 17 8 49 77 78 78 80 80 77 74 71 71 71 73 74
38 40 44 46 47 48 52 54 55 56 54 53 48 46 45 40 34 30 19 9 50 76 79 79 79 79 79 77 73 73 73 71
Wind_Direction
337 334 326 314 301 289 269 255 246 232 229 227 224 222 218 224 225 226 223 221 220 225 219 217 217 218 214 213 220 229 231 212
341 338 332 321 310 298 282 262 250 238 225 224 223 219 213 219 223 225 222 220 221 221 219 213 213 215 215 213 209 221 215 210
345 343 338 329 319 308 293 271 253 244 227 219 220 217 215 210 220 224 222 218 217 217 221 218 214 214 215 216 224 217 224 232
349 346 343 338 329 319 303 284 260 250 237 218 214 215 212 206 213 222 223 216 215 214 213 217 215 217 215 218 222 223 220 221
353 351 347 345 346 330 313 292 263 256 243 226 210 209 209 206 207 217 221 216 214 213 214 214 216 220 219 218 219 220 224 225
357 356 354 351 353 345 323 296 266 262 240 231 213 204 206 204 204 211 218 217 213 211 209 215 218 216 218 217 218 223 219 229
360 0 359 358 359 356 339 301 268 262 249 230 218 206 203 203 202 208 213 216 212 207 206 212 211 215 213 216 214 220 223 228
4 3 3 6 5 5 357 331 264 251 254 229 221 209 203 202 201 204 209 213 211 209 207 218 210 213 213 213 218 222 222 225
7 6 7 10 12 12 10 4 310 254 251 236 218 211 206 201 201 201 207 210 209 210 205 207 211 216 214 217 220 223 228 220
10 10 10 10 15 17 19 23 29 9 280 259 221 213 207 201 202 202 205 207 209 210 214 210 203 214 214 219 215 215 230 229
11 11 13 14 15 20 24 27 33 40 38 26 209 215 209 204 203 203 203 206 208 210 212 209 193 205 207 209 208 215 222 227
13 13 14 16 17 18 24 27 32 35 40 46 65 180 210 207 203 204 204 206 208 210 212 214 210 200 208 208 214 213 229 224
14 15 17 17 20 19 22 27 30 32 37 35 30 13 233 212 206 205 206 206 208 212 213 213 222 206 200 198 210 192 214 217
16 16 19 20 21 24 23 23 31 33 34 35 34 29 14 228 212 206 207 208 209 213 215 215 216 215 206 198 197 206 208 223
15 16 20 22 24 24 27 26 23 33 38 35 34 33 31 21 222 211 209 211 210 213 216 218 217 222 219 207 214 220 210 221
15 17 21 23 25 26 28 29 27 25 28 36 36 38 37 37 34 218 212 214 215 215 218 220 220 219 224 228 224 222 224 226
15 16 18 22 23 25 28 30 31 30 30 28 32 34 37 39 45 122 217 215 218 220 220 223 226 224 226 229 229 231 232 229
15 16 15 18 21 22 24 27 30 32 32 31 31 33 32 33 37 44 209 219 219 223 225 225 227 230 230 230 230 230 230 233
12 13 16 16 18 20 21 24 25 27 31 33 32 33 35 35 32 35 38 229 224 222 227 229 231 232 233 234 233 233 234 234
Height
5660 5646 5632 5620 5610 5604 5602 5601 5603 5608 5618 5631 5647 5663 5677 5692 5703 5712 5723 5733 5739 5748 5755 5763 5772 5779 5784 5786 5793 5800 5804 5806
5651 5635 5620 5606 5595 5586 5583 5582 5583 5588 5599 5610 5626 5643 5659 5674 5689 5698 5710 5721 5729 5737 5746 5753 5762 5769 5777 5782 5785 5792 5797 5801
5641 5625 5608 5595 5584 5575 5569 5566 5566 5569 5578 5591 5604 5624 5641 5657 5672 5685 5695 5708 5719 5727 5735 5744 5752 5759 5767 5774 5778 5780 5788 5793
5637 5617 5599 5587 5575 5566 5559 5554 5553 5555 5561 5570 5586 5603 5623 5640 5655 5670 5681 5696 5707 5717 5724 5734 5742 5751 5758 5765 5772 5777 5783 5786
5631 5614 5596 5582 5570 5558 5550 5545 5543 5544 5547 5553 5568 5584 5604 5623 5639 5654 5667 5683 5694 5705 5715 5724 5732 5741 5748 5756 5764 5771 5774 5780
5631 5613 5595 5580 5568 5553 5543 5538 5536 5536 5538 5543 5553 5566 5585 5605 5623 5639 5653 5669 5683 5695 5705 5715 5723 5731 5739 5747 5756 5762 5769 5774
5629 5613 5595 5578 5564 5550 5537 5531 5530 5530 5532 5536 5542 5553 5569 5588 5607 5623 5639 5655 5671 5684 5695 5704 5711 5721 5729 5739 5749 5756 5761 5763
5630 5614 5595 5578 5563 5548 5533 5524 5523 5525 5527 5530 5534 5543 5555 5574 5592 5610 5625 5642 5660 5672 5685 5693 5701 5710 5721 5729 5736 5744 5750 5756
5632 5615 5598 5581 5566 5552 5536 5523 5519 5521 5524 5526 5531 5536 5546 5562 5580 5597 5613 5630 5647 5661 5675 5681 5690 5701 5710 5719 5728 5736 5743 5750
5635 5618 5602 5587 5573 5559 5545 5531 5522 5520 5523 5525 5528 5533 5541 5555 5570 5586 5602 5618 5635 5651 5661 5670 5679 5691 5703 5712 5721 5730 5737 5742
5637 5622 5609 5595 5581 5568 5556 5544 5533 5527 5525 5526 5528 5533 5540 5550 5564 5578 5594 5609 5626 5640 5652 5664 5670 5683 5693 5702 5714 5722 5728 5735
5643 5628 5615 5601 5589 5576 5565 5556 5548 5540 5536 5534 5533 5535 5539 5546 5558 5571 5585 5601 5615 5628 5642 5653 5662 5673 5683 5696 5706 5712 5721 5726
5650 5636 5623 5609 5597 5585 5575 5567 5560 5553 5548 5545 5542 5542 5543 5546 5555 5568 5581 5593 5607 5619 5633 5645 5654 5667 5674 5684 5695 5704 5711 5718
5657 5644 5630 5618 5606 5595 5584 5577 5570 5564 5559 5555 5552 5549 5548 5550 5555 5565 5577 5588 5601 5613 5625 5638 5649 5658 5667 5673 5682 5692 5701 5707
5663 5651 5639 5627 5616 5606 5596 5587 5579 5573 5568 5563 5559 5556 5553 5553 5558 5566 5574 5584 5595 5607 5618 5629 5642 5650 5658 5667 5672 5681 5690 5699
5669 5658 5647 5637 5626 5616 5607 5598 5589 5583 5577 5572 5568 5563 5559 5557 5558 5565 5575 5583 5591 5600 5610 5619 5632 5643 5652 5658 5666 5673 5681 5689
5675 5666 5657 5647 5637 5627 5618 5608 5600 5593 5587 5581 5576 5572 5568 5564 5562 5563 5571 5581 5589 5596 5604 5611 5620 5632 5642 5650 5657 5665 5673 5679
5681 5673 5664 5655 5647 5637 5628 5619 5610 5603 5597 5591 5586 5581 5577 5574 5570 5568 5570 5576 5585 5592 5599 5605 5612 5619 5628 5637 5646 5654 5662 5670
5687 5679 5670 5662 5654 5646 5637 5629 5621 5613 5606 5601 5596 5591 5587 5583 5580 5576 5574 5576 5580 5587 5594 5600 5605 5612 5618 5625 5634 5642 5650 5657